DW8214 Weather Reports


time (UTC)temp
C
wind
direction
speed
KPH
gust
KPH
rain 1hr
cm
rain 24hr
cm
rain mn
cm
humidity
%
barometer
mb
20180818042056 23 37 0.0 0.0 0.00 0.00 0.00 64 1008.0
20180818040552 23 37 0.0 0.0 0.00 0.00 0.00 63 1007.9
20180818035051 23 37 0.0 0.0 0.00 0.00 0.00 64 1007.9
20180818033552 24 37 0.0 0.0 0.00 0.00 0.00 64 1008.0
20180818032050 24 37 0.0 0.0 0.00 0.00 0.00 63 1008.0
20180818030550 24 37 0.0 0.0 0.00 0.00 0.00 63 1008.0
20180818025050 24 46 0.0 0.0 0.00 0.00 0.00 63 1007.9
20180818023550 24 46 0.0 0.0 0.00 0.00 0.00 63 1007.9
20180818022054 24 25 0.0 1.6 0.00 0.00 0.00 63 1008.0
20180818020545 23 54 0.0 1.6 0.00 0.00 0.00 63 1008.0
20180818015043 23 355 0.0 0.0 0.00 0.00 0.00 64 1008.0
20180818013542 23 35 0.0 0.0 0.00 0.00 0.00 64 1008.1
20180818012046 23 192 0.0 1.6 0.00 0.00 0.00 64 1008.2
20180818010539 23 192 0.0 0.0 0.00 0.00 0.00 63 1008.3
20180818005043 23 192 0.0 0.0 0.00 0.00 0.00 63 1008.4
20180818003538 23 192 0.0 0.0 0.00 0.00 0.00 63 1008.5
20180818002035 23 192 0.0 0.0 0.00 0.00 0.00 63 1008.6
20180818000534 23 192 0.0 0.0 0.00 0.00 0.00 63 1008.7
20180817235038 23 192 0.0 0.0 0.00 0.00 0.00 63 1008.8
20180817233536 23 192 0.0 0.0 0.00 0.00 0.00 61 1008.8
20180817232036 23 192 0.0 0.0 0.00 0.00 0.00 62 1008.8
20180817230532 23 192 0.0 0.0 0.00 0.00 0.00 61 1008.9
20180817225034 23 192 0.0 0.0 0.00 0.00 0.00 61 1008.8
20180817223527 23 192 0.0 0.0 0.00 0.00 0.00 61 1008.8
20180817222032 23 192 0.0 0.0 0.00 0.00 0.00 62 1008.9
20180817220526 23 192 0.0 0.0 0.00 0.00 0.00 63 1008.9
20180817215027 23 192 0.0 0.0 0.00 0.00 0.00 63 1008.8
20180817213527 23 192 0.0 0.0 0.00 0.00 0.00 64 1008.9
20180817212027 23 192 0.0 0.0 0.00 0.00 0.00 65 1008.9
20180817210524 23 192 0.0 0.0 0.00 0.00 0.00 66 1008.9
20180817205025 24 192 0.0 0.0 0.00 0.00 0.00 67 1008.9
20180817203523 24 192 0.0 0.0 0.00 0.00 0.00 66 1008.8
20180817202024 24 192 0.0 0.0 0.00 0.00 0.00 65 1008.7
20180817200522 25 192 0.0 0.0 0.00 0.00 0.00 63 1008.6
20180817195022 25 192 0.0 0.0 0.00 0.00 0.00 61 1008.5
20180817193522 25 192 0.0 0.0 0.00 0.00 0.00 62 1008.5
20180817192019 25 192 0.0 0.0 0.00 0.00 0.00 61 1008.4
20180817190519 25 192 0.0 0.0 0.00 0.00 0.00 60 1008.4
20180817185020 25 192 0.0 0.0 0.00 0.00 0.00 60 1008.5
20180817183519 25 192 0.0 0.0 0.00 0.00 0.00 60 1008.4
20180817182019 25 192 0.0 0.0 0.00 0.00 0.00 61 1008.5
20180817180517 25 192 0.0 8.0 0.00 0.00 0.00 62 1008.5
20180817175021 25 207 0.0 4.8 0.00 0.00 0.00 62 1008.4
20180817173518 25 202 0.0 6.4 0.00 0.00 0.00 62 1008.5
20180817172021 25 205 0.0 8.0 0.00 0.00 0.00 61 1008.5
20180817170515 26 223 0.0 6.4 0.00 0.00 0.00 60 1008.5
20180817165014 26 195 0.0 8.0 0.00 0.00 0.00 61 1008.6
20180817163516 25 192 0.0 4.8 0.00 0.00 0.00 61 1008.8
20180817162011 25 182 0.0 9.7 0.00 0.00 0.00 63 1008.9
20180817160513 25 172 0.0 12.9 0.00 0.00 0.00 64 1009.0
20180817155013 26 215 0.0 9.7 0.00 0.00 0.00 62 1009.1
20180817153507 26 205 0.0 3.2 0.00 0.00 0.00 63 1009.1
20180817152005 26 144 0.0 11.3 0.00 0.00 0.00 64 1009.4
20180817150505 26 157 0.0 9.7 0.00 0.00 0.00 64 1009.5
20180817145006 25 240 0.0 6.4 0.00 0.00 0.00 63 1009.5
20180817143504 26 140 0.0 11.3 0.00 0.00 0.00 62 1009.7
20180817142000 26 235 4.8 11.3 0.00 0.00 0.00 60 1009.9
20180817140500 26 192 0.0 9.7 0.00 0.00 0.00 61 1010.1
20180817135000 26 164 0.0 12.9 0.00 0.00 0.00 62 1010.3
20180817133459 26 215 0.0 11.3 0.00 0.00 0.00 62 1010.3
20180817131957 26 184 0.0 11.3 0.00 0.00 0.00 65 1010.3
20180817130500 26 205 3.2 12.9 0.00 0.00 0.00 64 1010.5
20180817124959 26 123 1.6 17.7 0.00 0.00 0.00 64 1010.5
20180817123456 26 221 4.8 16.1 0.00 0.00 0.00 63 1010.7
20180817121956 26 213 4.8 11.3 0.00 0.00 0.00 62 1010.8
20180817120455 26 126 0.0 9.7 0.00 0.00 0.00 63 1010.8
20180817114952 26 165 1.6 12.9 0.00 0.00 0.00 64 1010.7
20180817113448 26 217 1.6 11.3 0.00 0.00 0.00 64 1011.0
20180817111941 26 144 0.0 12.9 0.00 0.00 0.00 65 1011.0
20180817110441 26 153 0.0 9.7 0.00 0.00 0.00 64 1011.0
20180817104936 25 164 0.0 12.9 0.00 0.00 0.00 65 1010.9
20180817103437 25 136 0.0 8.0 0.00 0.00 0.00 65 1011.1
20180817101927 25 143 0.0 9.7 0.00 0.00 0.00 64 1011.0
20180817100425 25 160 0.0 6.4 0.00 0.00 0.00 65 1011.1
20180817094922 25 212 0.0 8.0 0.00 0.00 0.00 65 1010.9
20180817093417 25 219 1.6 9.7 0.00 0.00 0.00 66 1010.9
20180817091910 25 186 0.0 3.2 0.00 0.00 0.00 67 1010.8
20180817090406 24 169 0.0 3.2 0.00 0.00 0.00 67 1010.7
20180817084902 24 53 0.0 0.0 0.00 0.00 0.00 68 1010.7
20180817083404 23 53 0.0 0.0 0.00 0.00 0.00 70 1010.6
20180817081854 22 53 0.0 0.0 0.00 0.00 0.00 73 1010.7
20180817080351 21 53 0.0 0.0 0.00 0.00 0.00 77 1010.7
20180817074847 21 53 0.0 0.0 0.00 0.00 0.00 82 1010.8
20180817073341 20 53 0.0 0.0 0.00 0.00 0.00 84 1010.8
20180817071838 19 53 0.0 0.0 0.00 0.00 0.00 85 1010.8
20180817070331 18 53 0.0 0.0 0.00 0.00 0.00 86 1010.7
20180817064829 18 53 0.0 0.0 0.00 0.00 0.00 85 1010.6
20180817063326 18 53 0.0 0.0 0.00 0.00 0.00 86 1010.3
20180817061824 18 53 0.0 0.0 0.00 0.00 0.00 86 1010.3
20180817060322 18 53 0.0 0.0 0.00 0.00 0.00 85 1010.2
20180817054819 18 53 0.0 0.0 0.00 0.00 0.00 85 1010.1
20180817053317 19 53 0.0 0.0 0.00 0.00 0.00 85 1010.0
20180817051816 19 53 0.0 0.0 0.00 0.00 0.00 84 1010.0
20180817050318 19 53 0.0 0.0 0.00 0.00 0.00 83 1009.9
20180817044816 19 53 0.0 0.0 0.00 0.00 0.00 82 1009.8
20180817043319 19 53 0.0 0.0 0.00 0.00 0.00 82 1009.9